This demonstration page uses our WeatherBlox Daily Observations layout. Learn more.

Left ArrowRight Arrow

Hourly Observations for August 17, 2021

Temp ( °F °C ) Dew Point ( °F °C ) Humidity (%) Winds ( mph kmh ) Pressure ( in mb ) Visibility ( mi km ) Precip ( " mm )
6:30 am 06:30 Cloudy with Fog 68 20 66 19 94 94 N N/A 30.01 1016 0 0 N/A
6:50 am 06:50 Cloudy with Fog 68 20 66 19 94 94 N N/A 30.02 1017 0 0 N/A
7:45 am 07:45 Cloudy with Fog 68 20 66 19 94 94 N N/A 30.02 1017 0 0 N/A
8:50 am 08:50 Cloudy with Mist and Fog 68 20 68 20 100 100 N N/A 30.04 1017 2 3 N/A
9:45 am 09:45 Cloudy with Mist and Fog 70 21 68 20 94 94 N N/A 30.04 1017 2 3 N/A
10:35 am 10:35 Cloudy with Mist and Fog 72 22 70 21 94 94 N N/A 30.05 1018 4 6 N/A
10:45 am 10:45 Cloudy with Mist and Fog 72 22 70 21 94 94 N N/A 30.04 1017 4 6 N/A
11:55 am 11:55 Cloudy with Mist and Fog 73 23 70 21 89 89 N N/A 30.05 1018 5 8 N/A
12:40 pm 12:40 Cloudy 77 25 72 22 83 83 N N/A 30.02 1017 10 16 N/A
12:55 pm 12:55 Mostly Cloudy 79 26 70 21 74 74 N N/A 30.02 1017 10 16 N/A
1:45 pm 13:45 Cloudy 81 27 70 21 70 70 N N/A 30.00 1016 10 16 N/A
2:45 pm 14:45 Mostly Cloudy 82 28 72 22 70 70 undefined N/A 29.99 1015 10 16 N/A
2:50 pm 14:50 Mostly Cloudy 82 28 72 22 70 70 N N/A 29.99 1015 10 16 N/A
3:45 pm 15:45 Mostly Cloudy 82 28 70 21 66 66 N N/A 29.98 1015 10 16 N/A
4:45 pm 16:45 Mostly Cloudy 77 25 72 22 83 83 NNW 8 13 29.96 1015 10 16 N/A
5:45 pm 17:45 Partly Cloudy 77 25 72 22 83 83 N 3 6 29.95 1014 10 16 N/A
6:45 pm 18:45 Partly Cloudy 79 26 72 22 79 79 NNE 6 9 29.94 1014 10 16 N/A
7:45 pm 19:45 Partly Cloudy 77 25 72 22 83 83 ENE 5 7 29.95 1014 10 16 N/A
8:45 pm 20:45 Mostly Cloudy 77 25 68 20 74 74 SSE 9 15 29.96 1015 10 16 N/A
9:45 pm 21:45 Cloudy 73 23 68 20 83 83 N N/A 30.00 1016 10 16 N/A

Powered by AerisWeather